Home   Weather   Rygge   Past weeks

Flag for Norway Past Weather in Rygge, Norway — Yesterday and Last 2 Weeks

Now
33 °F

Low clouds.


Feels Like: 33 °F
Forecast: 32 / 37 °F
Wind: 2 mph from Southeast

Location: Rygge

Current Time: Feb 27, 2017 at 12:45:29 am

Latest Report: Feb 27, 2017 at 12:00 am


Visibility: 0 mi

Pressure: 29.44 "Hg

Humidity: 99%

Dew Point: 33 °F

Location of RyggeLocation

Past Weather in Rygge — Graph

°F

Rygge Temperature Yesterday

Maximum temperature yesterday: 36 °F (at 12:00 am)
Minimum temperature yesterday: 30 °F (at 8:00 am)
Average temperature yesterday: 32 °F

High & Low Weather Summary for the Past Weeks

 TemperatureHumidityPressure
High46 °F (Feb 20, 7:00 pm)100% (Feb 16, 2:00 pm)30.84 "Hg (Feb 16, 2:00 pm)
Low14 °F (Feb 12, 8:00 am)34% (Feb 24, 3:00 pm)28.64 "Hg (Feb 22, 4:00 pm)
Average31 °F86%29.83 "Hg
* Reported Feb 11 11:00 pm — Feb 26 11:00 pm, Rygge, Weather by CustomWeather, © 2017

Note: Actual official high and low records may vary slightly from our data, if they occured in-between our weather recording intervals... More about our weather records

Advertising

Rygge Weather History for the Previous 24 Hours

Scroll right to see more
 ConditionsComfort  
Time TempWeatherWind HumidityBarometerVisibility
11:00 pm
Sun, Feb 26
32 °FRain showers. Low clouds.2 mph99%29.47 "Hg0 mi
10:00 pm32 °FLow clouds.2 mph100%29.47 "Hg0 mi
9:00 pm31 °FLow clouds.1 mph99%29.47 "Hg0 mi
8:00 pm30 °FLow clouds.2 mph99%29.47 "Hg0 mi
7:00 pm30 °FLow clouds.2 mph99%29.50 "Hg0 mi
6:00 pm31 °FLow clouds.3 mph100%29.47 "Hg0 mi
5:00 pm31 °FOvercast.2 mph100%29.47 "Hg0 mi
4:00 pm32 °FLow clouds.2 mph99%29.47 "Hg0 mi
3:00 pm31 °FLow clouds.2 mph99%29.47 "Hg0 mi
2:00 pm31 °FLow clouds.2 mph98%29.47 "Hg0 mi
1:00 pm31 °FLow clouds.2 mph98%29.47 "Hg0 mi
12:00 pm31 °FLow clouds.1 mph97%29.47 "Hg0 mi
11:00 am31 °FLow clouds.1 mph97%29.47 "Hg0 mi
10:00 am30 °FLow clouds.2 mph98%29.44 "Hg0 mi
9:00 am30 °FIce fog.1 mph98%29.44 "Hg1 mi
8:00 am30 °FLow clouds.1 mph98%29.41 "Hg3 mi
7:00 am31 °FLow clouds.2 mph99%29.41 "Hg8 mi
6:00 am32 °FLow clouds.2 mph100%29.38 "Hg13 mi
5:00 am32 °FLow clouds.2 mph99%29.38 "Hg11 mi
4:00 am32 °FOvercast.3 mph99%29.38 "Hg2 mi
3:00 am32 °FLow clouds.2 mph99%29.35 "Hg0 mi
2:00 am33 °FLow clouds.5 mph99%29.35 "Hg0 mi
1:00 am35 °FLow clouds.2 mph99%29.32 "Hg7 mi
12:00 am36 °FLow clouds.3 mph99%29.32 "Hg0 mi
Weather by CustomWeather, © 2017

See weather overviewHow to use our weather pages